Hourly Weather Roundup
Issued by NWS Central Illinois

Home | Current Version | Previous Version | Text Only | Print | Product List | Glossary On
Versions: 1 2 3 4 5 6 7 8 9 10 11 12 13 14 15 16 17 18 19 20 21 22 23 24 25 26 27 28 29 30 31 32 33 34 35 36 37 38 39 40 41 42 43 44 45 46 47 48 49 50
632
NZUS43 KILX 212010
HWRILX

Area Weather Roundup
National Weather Service Lincoln IL
300 PM CDT THU SEP 21 2017

NOTE:  "FAIR" indicates few or no clouds below 12,000 feet, with
       no sigificant weather and/or obstructions to visibility.


CITY           SKY/WX    TMP DP  RH WIND       PRES   REMARKS
Bloomington    CLOUDY    89  72  56 S13       30.01F HX  96
Champaign      CLOUDY    92  67  43 S6        30.01F HX  95
Danville       PTSUNNY   93  70  46 S6        29.99F HX  99
Decatur        CLOUDY    92  68  45 S9        30.00F HX  96
Effingham      MOSUNNY   95  67  39 SE14      30.02F HX  99
Flora          SUNNY     95  68  40 S9G16     30.01F HX 100
Galesburg      CLOUDY    83  66  55 S9G20     29.98R HX  85
Jacksonville   CLOUDY    87  71  58 S9        29.98S HX  92
Lacon          CLOUDY    90  68  48 S7        29.98S HX  93
Lawrenceville  MOSUNNY   92  68  45 S7        30.02F HX  96
Litchfield     CLOUDY    87  71  58 S7        30.01S HX  93
$$


CITY           SKY/WX    TMP DP  RH WIND       PRES   REMARKS
Lincoln        CLOUDY    94  71  47 S8G20     29.97F HX 101
Macomb         CLOUDY    84  64  49 SE10G16   30.00S HX  85
Mattoon        MOSUNNY   93  70  46 S10       29.99F HX  99
Mt Carmel AP   SUNNY     93  67  42 S10G16    30.02F HX  96
Olney-Noble AP MOSUNNY   94  61  32 S9G16     30.01F HX  94
Paris AP       MOSUNNY   94  70  46 SE8G17    30.02F HX 100
Peoria         PTSUNNY   89  69  51 SE9       29.98F HX  93
Pontiac        CLOUDY    91  72  55 CALM      30.00S HX  98
Rantoul        CLOUDY    93  71  49 SE9       30.00F HX  99
Robinson       PTSUNNY   93  67  42 S6        30.02F HX  97
Springfield    MOSUNNY   94  70  45 S10       29.98F HX 100
Taylorville    MOSUNNY   93  70  46 S9        30.00S HX  99
$$

...REGIONAL REPORTS...


CITY           SKY/WX    TMP DP  RH WIND       PRES   REMARKS
Chicago O`Hare PTSUNNY   94  61  33 S8        29.99F HX  94
Kankakee       MOSUNNY   90  71  53 S3        30.01F HX  96
Moline         CLOUDY    83  66  56 E10       29.96R HX  85
Mount Sterling CLOUDY    83  73  72 S7        29.98F HX  88
Mount Vernon     N/A     94  69  44 SE10      30.01F HX  99
Pittsfield     CLOUDY    87  73  64 SE10G16   29.99F HX  94
Quincy         PTSUNNY   85  72  65 SE8       29.97F HX  91
Rockford       CLOUDY    89  59  36 S12       29.99F HX  88
$$


CITY           SKY/WX    TMP DP  RH WIND       PRES   REMARKS
Burlington     PTSUNNY   83  67  58 S10       29.95S HX  85
Cedar Rapids   CLOUDY    91  67  44 S17G25    29.90R HX  94
Des Moines     MOSUNNY   88  72  58 S20       29.85F HX  94
Kirksville     MOSUNNY   90  72  55 SE16      29.94F HX  97
Ottumwa        SUNNY     87  70  56 S15       29.89F HX  92
St Louis       CLOUDY    88  72  58 E12       29.99F HX  94
$$


CITY           SKY/WX    TMP DP  RH WIND       PRES   REMARKS
Terre Haute    MOSUNNY   94  66  39 SW9       30.02F HX  97
Evansville     MOSUNNY   90  68  48 SW6       30.03F HX  94
Indianapolis   MOSUNNY   91  69  48 S5        30.04F HX  96
Lafayette      MOSUNNY   91  70  49 SW7       30.01F HX  96
Madison        CLOUDY    83  64  52 SE9       29.97F HX  84
Milwaukee      CLOUDY    84  68  58 SE9       30.01S HX  87
$$






USA.gov is the U.S. government's official web portal to all federal, state and local government web resources and services.